Date String (YYYY-MM-DD hh:mm:ss) UTC,Instrument flags,absolute air pressure of the measurement (hPa),sample flow rate (lpm),inlet stack bypass flow (lpm),air temperature of the measurement (°C),ambient temperature measured by the external sensor (°C),aerosol sample conditioner tube jacket temperature (°C),OPC LED temperature (°C),internal box temperature (°C),relative humidity of the measurement (%),span deviation,mass concentration of particles derived from Lorenz-Mie calculation of OPC scattering (μg/m³),mass concentration of particles derived from Lorenz-Mie calculation of OPC scattering (μg/m³),mass concentration of particles derived from Lorenz-Mie calculation of OPC scattering (μg/m³)
DateTimeUTC,F1_M11,P_M11,Q1_M11,Q2_M11,T1_M11,T2_M11,T3_M11,T4_M11,T5_M11,U1_M11,ZSPAN_M11,X0_M11,X2_M11,X1_M11
2024-04-22 01:00:00,SystemResetWarning,0829.3,4.98,000.00,024.9,024.2,000.0,033.2,026.7,021.3,0002.8,0014.14,0008.93,0008.23
2024-04-22 01:01:00,SystemResetWarning,0829.2,5.00,000.00,024.9,024.3,000.0,033.2,026.7,021.2,0002.7,0014.34,0009.00,0008.30
2024-04-22 01:02:00,SystemResetWarning,0829.2,5.02,000.00,024.9,024.3,000.0,033.3,026.7,021.0,0002.6,0014.27,0009.05,0008.36
2024-04-22 01:03:00,SystemResetWarning,0829.2,5.01,000.00,025.0,024.3,000.0,033.3,026.8,021.0,0002.6,0014.06,0009.09,0008.38
2024-04-22 01:04:00,SystemResetWarning,0829.2,4.99,000.00,025.0,024.3,000.0,033.3,026.8,021.2,0002.3,0013.99,0009.10,0008.42
2024-04-22 01:05:00,SystemResetWarning,0829.1,4.99,000.00,025.0,024.3,000.0,033.3,026.8,021.1,0002.4,0014.12,0009.13,0008.45
2024-04-22 01:06:00,SystemResetWarning,0829.1,5.00,000.00,025.0,024.3,000.0,033.3,026.8,021.2,0002.4,0014.38,0009.12,0008.46
2024-04-22 01:07:00,SystemResetWarning,0829.1,5.01,000.00,025.0,024.3,000.0,033.3,026.8,021.0,0002.3,0014.46,0009.05,0008.44
2024-04-22 01:08:00,SystemResetWarning,0829.1,5.01,000.00,025.0,024.4,000.0,033.3,026.8,021.2,0001.7,0015.46,0009.02,0008.43
2024-04-22 01:09:00,SystemResetWarning,0829.1,5.00,000.00,025.0,024.4,000.0,033.4,026.9,021.2,0001.4,0015.84,0009.00,0008.42
2024-04-22 01:10:00,SystemResetWarning,0829.1,5.00,000.00,025.0,024.4,000.0,033.4,026.9,021.6,0001.3,0016.58,0009.04,0008.45
2024-04-22 01:11:00,SystemResetWarning,0829.1,5.00,000.00,025.1,024.4,000.0,033.4,026.9,021.7,0001.3,0016.82,0009.06,0008.46
2024-04-22 01:12:00,SystemResetWarning,0829.1,5.00,000.00,025.1,024.4,000.0,033.4,026.9,021.3,0001.3,0016.62,0009.06,0008.44
2024-04-22 01:13:00,SystemResetWarning,0829.1,5.01,000.00,025.1,024.4,000.0,033.4,026.9,021.3,0001.3,0016.42,0009.05,0008.42
2024-04-22 01:14:00,SystemResetWarning,0829.1,4.99,000.00,025.1,024.4,000.0,033.4,026.9,021.0,0001.3,0016.83,0009.00,0008.40
2024-04-22 01:15:00,SystemResetWarning,0829.1,4.99,000.00,025.1,024.4,000.0,033.4,026.9,020.7,0001.3,0016.95,0009.00,0008.40
2024-04-22 01:16:00,SystemResetWarning,0829.1,4.99,000.00,025.1,024.4,000.0,033.5,026.9,020.8,0001.2,0017.86,0008.99,0008.39
2024-04-22 01:17:00,SystemResetWarning,0829.1,5.00,000.00,025.1,024.4,000.0,033.5,026.9,020.9,0001.0,0017.95,0008.94,0008.39
2024-04-22 01:18:00,SystemResetWarning,0829.1,5.00,000.00,025.1,024.5,000.0,033.5,027.0,020.9,0000.8,0018.27,0008.93,0008.39
2024-04-22 01:19:00,SystemResetWarning,0829.0,5.00,000.00,025.1,024.5,000.0,033.5,027.0,021.0,0000.8,0017.13,0008.93,0008.38
2024-04-22 01:20:00,SystemResetWarning,0829.0,5.00,000.00,025.2,024.5,000.0,033.5,027.0,021.1,0000.5,0016.70,0008.95,0008.40
2024-04-22 01:21:00,SystemResetWarning,0829.0,5.00,000.00,025.2,024.5,000.0,033.5,027.0,021.3,0000.5,0016.08,0008.96,0008.40
2024-04-22 01:22:00,SystemResetWarning,0828.9,5.00,000.00,025.2,024.5,000.0,033.5,027.0,021.8,0000.5,0015.71,0008.93,0008.37
2024-04-22 01:23:00,SystemResetWarning,0829.0,5.00,000.00,025.2,024.5,000.0,033.5,027.0,022.7,0000.4,0015.63,0008.91,0008.37
2024-04-22 01:24:00,SystemResetWarning,0829.0,5.00,000.00,025.2,024.5,000.0,033.6,027.0,023.0,0000.3,0015.51,0008.88,0008.33
2024-04-22 01:25:00,SystemResetWarning,0829.0,5.00,000.00,025.2,024.5,000.0,033.6,027.0,022.7,0000.3,0015.69,0008.81,0008.22
2024-04-22 01:26:00,SystemResetWarning,0829.0,5.00,000.00,025.2,024.5,000.0,033.6,027.0,022.4,0000.4,0015.76,0008.70,0008.09
2024-04-22 01:27:00,SystemResetWarning,0829.0,5.00,000.00,025.2,024.5,000.0,033.6,027.0,022.2,0000.4,0015.36,0008.56,0007.95
2024-04-22 01:28:00,SystemResetWarning,0829.0,5.00,000.00,025.2,024.5,000.0,033.6,027.0,021.8,0000.1,0015.12,0008.44,0007.80
2024-04-22 01:29:00,SystemResetWarning,0829.0,5.00,000.00,025.2,024.5,000.0,033.6,027.0,021.6,0000.0,0015.09,0008.32,0007.67
2024-04-22 01:30:00,SystemResetWarning,0829.0,5.00,000.00,025.2,024.5,000.0,033.6,027.0,021.4,-000.0,0015.05,0008.22,0007.58
2024-04-22 01:31:00,SystemResetWarning,0829.0,5.00,000.00,025.3,024.5,000.0,033.6,027.1,021.3,0000.2,0015.09,0008.13,0007.48
2024-04-22 01:32:00,SystemResetWarning,0829.0,5.00,000.00,025.3,024.6,000.0,033.6,027.1,021.6,0000.2,0014.90,0008.03,0007.40
2024-04-22 01:33:00,SystemResetWarning,0829.0,5.00,000.00,025.3,024.6,000.0,033.6,027.1,021.6,0000.6,0014.71,0007.97,0007.32
2024-04-22 01:34:00,SystemResetWarning,0829.0,5.00,000.00,025.3,024.6,000.0,033.7,027.1,021.3,0000.9,0014.59,0007.87,0007.22
2024-04-22 01:35:00,SystemResetWarning,0828.9,5.00,000.00,025.3,024.6,000.0,033.7,027.1,021.2,0001.1,0015.45,0007.83,0007.18
2024-04-22 01:36:00,SystemResetWarning,0828.9,5.00,000.00,025.3,024.6,000.0,033.7,027.1,021.1,0001.1,0015.32,0007.86,0007.20
2024-04-22 01:37:00,SystemResetWarning,0828.9,5.00,000.00,025.3,024.6,000.0,033.7,027.1,020.9,0000.9,0014.89,0007.89,0007.24
2024-04-22 01:38:00,SystemResetWarning,0829.0,5.00,000.00,025.3,024.6,000.0,033.7,027.1,021.4,0001.0,0014.13,0007.94,0007.31
2024-04-22 01:39:00,SystemResetWarning,0828.9,5.00,000.00,025.3,024.6,000.0,033.7,027.1,022.5,0001.7,0013.88,0007.98,0007.34
2024-04-22 01:40:00,SystemResetWarning,0829.0,5.00,000.00,025.3,024.6,000.0,033.7,027.1,022.3,0002.0,0013.52,0007.97,0007.32
2024-04-22 01:41:00,SystemResetWarning,0829.0,5.00,000.00,025.3,024.6,000.0,033.7,027.1,021.7,0002.4,0013.48,0007.94,0007.28
2024-04-22 01:42:00,SystemResetWarning,0828.9,5.00,000.00,025.3,024.6,000.0,033.7,027.1,021.6,0002.7,0013.20,0007.87,0007.24
2024-04-22 01:43:00,SystemResetWarning,0828.8,5.00,000.00,025.3,024.6,000.0,033.7,027.1,021.5,0002.5,0013.15,0007.82,0007.20
2024-04-22 01:44:00,SystemResetWarning,0828.9,5.00,000.00,025.3,024.6,000.0,033.7,027.1,021.8,0001.9,0013.47,0007.82,0007.18
2024-04-22 01:45:00,SystemResetWarning,0828.9,5.00,000.00,025.3,024.6,000.0,033.7,027.2,021.8,0002.0,0014.14,0007.79,0007.18
2024-04-22 01:46:00,SystemResetWarning,0828.9,4.99,000.00,025.3,024.6,000.0,033.8,027.1,021.9,0001.9,0013.96,0007.76,0007.16
2024-04-22 01:47:00,SystemResetWarning,0828.8,5.00,000.00,025.3,024.6,000.0,033.8,027.1,022.5,0001.6,0012.83,0007.67,0007.10
2024-04-22 01:48:00,SystemResetWarning,0828.8,5.00,000.00,025.3,024.6,000.0,033.8,027.2,022.8,0001.8,0013.23,0007.60,0007.02
2024-04-22 01:49:00,SystemResetWarning,0828.9,5.00,000.00,025.4,024.6,000.0,033.8,027.2,022.1,0002.0,0013.29,0007.51,0006.92
2024-04-22 01:50:00,SystemResetWarning,0828.9,5.00,000.00,025.4,024.6,000.0,033.8,027.2,021.8,0002.1,0013.25,0007.43,0006.86
2024-04-22 01:51:00,SystemResetWarning,0828.8,5.00,000.00,025.4,024.6,000.0,033.8,027.2,021.6,0002.1,0012.89,0007.40,0006.84
2024-04-22 01:52:00,SystemResetWarning,0828.8,5.01,000.00,025.4,024.6,000.0,033.8,027.2,020.8,0002.0,0013.66,0007.42,0006.86
2024-04-22 01:53:00,SystemResetWarning,0828.8,5.00,000.00,025.4,024.6,000.0,033.8,027.2,020.7,0002.0,0014.15,0007.49,0006.88
2024-04-22 01:54:00,SystemResetWarning,0828.8,4.99,000.00,025.4,024.6,000.0,033.8,027.2,020.7,0002.6,0014.89,0007.51,0006.90
2024-04-22 01:55:00,SystemResetWarning,0828.8,4.99,000.00,025.4,024.6,000.0,033.8,027.2,021.6,0003.0,0015.14,0007.56,0006.92
2024-04-22 01:56:00,SystemResetWarning,0828.8,5.00,000.00,025.4,024.6,000.0,033.8,027.2,021.4,0003.1,0014.37,0007.56,0006.92
2024-04-22 01:57:00,SystemResetWarning,0828.8,5.01,000.00,025.4,024.6,000.0,033.8,027.2,021.2,0003.4,0013.88,0007.57,0006.92
2024-04-22 01:58:00,SystemResetWarning,0828.8,5.00,000.00,025.4,024.6,000.0,033.8,027.2,021.0,0003.6,0013.87,0007.55,0006.92
2024-04-22 01:59:00,SystemResetWarning,0828.8,5.01,000.00,025.4,024.6,000.0,033.8,027.2,021.1,0003.9,0013.61,0007.58,0006.95
